Overview Statistics Trail Chart Weather Telemetry Raw packets
 

This is the latest recevied weather packets stored in our database for station/object SV9TNF-57. If no packets are shown the sender has not sent any weather packets the latest 10 day(s).

<< 30 31 32 33 34 35 36 >>
Time Temp. Humidity Pressure Rain* Wind** Luminosity Snow
1788456259 26.67° C 59% 993.4 hPa 0 mm 0 m/s - -
1788455958 26.67° C 58% 993.4 hPa 0 mm 0 m/s - -
1788455658 27.22° C 58% 993.5 hPa 0 mm 0 m/s - -
1788455358 27.22° C 58% 993.5 hPa 0 mm 0 m/s - -
1788455058 27.22° C 59% 993.3 hPa 0 mm 0 m/s - -
1788454758 27.22° C 58% 993.3 hPa 0 mm 0 m/s - -
1788454458 27.22° C 57% 993.4 hPa 0 mm 0 m/s - -
1788454158 27.22° C 56% 993.4 hPa 0 mm 0 m/s - -
1788453858 27.22° C 57% 993.2 hPa 0 mm 0 m/s - -
1788453558 27.78° C 60% 993.3 hPa 0 mm 0 m/s - -
1788453257 27.78° C 61% 993.3 hPa 0 mm 0 m/s - -
1788452957 27.78° C 60% 993.3 hPa 0 mm 0.89 m/s, 301° - -
1788452658 28.33° C 60% 993.3 hPa 0 mm 0 m/s - -
1788452357 28.33° C 60% 993.3 hPa 0 mm 0 m/s - -
1788452057 28.33° C 60% 993.1 hPa 0 mm 0.45 m/s, 275° - -
1788451757 28.89° C 59% 993.2 hPa 0 mm 0.89 m/s, 325° - -
1788451457 28.89° C 55% 993.1 hPa 0 mm 0 m/s - -
1788451157 28.89° C 60% 993 hPa 0 mm 0 m/s - -
1788450857 30° C 59% 993.1 hPa 0 mm 0 m/s - -
1788450557 30.56° C 52% 993.1 hPa 0 mm 0 m/s - -
1788450257 30° C 49% 993 hPa 0 mm 0 m/s - -
1788449956 30° C 50% 993.2 hPa 0 mm 2.68 m/s, 330° - -
1788449656 30.56° C 48% 993 hPa 0 mm 0.89 m/s, 158° - -
1788449357 30.56° C 47% 993.1 hPa 0 mm 2.24 m/s, 328° - -
1788449056 30.56° C 48% 993 hPa 0 mm 0 m/s - -

* Rain latest hour (hover to see other rain measurements)
** Current wind speed in m/s (hover to see current wind gust speed)